IPOOL FPST-FPPR

Flight info

Callsign IPOOL
Flight time 0h 41m
Altitude 5000
Route DCT
Aircraft C182/L-ICAO/S

Departure

Time 2026-05-05 16:45
Airport São Tomé International Airport (FPST)

Arrival

Time 2026-05-05 17:27
Airport Principe Airport (FPPR)
Time Latitude Longitude Altitude Speed Heading
2026-05-05 16:45 0.41507 6.70565 1441 ft 77 kts 94°
2026-05-05 16:45 0.41627 6.71070 1837 ft 61 kts 73°
2026-05-05 16:46 0.41879 6.71441 2037 ft 80 kts 45°
2026-05-05 16:46 0.42349 6.71631 2422 ft 67 kts 25°
2026-05-05 16:46 0.42706 6.71950 2705 ft 67 kts 38°
2026-05-05 16:46 0.43198 6.72108 2897 ft 85 kts 12°
2026-05-05 16:47 0.43875 6.72391 2659 ft 134 kts 34°
2026-05-05 16:47 0.44534 6.73010 2732 ft 123 kts 56°
2026-05-05 16:47 0.44886 6.73740 2931 ft 113 kts 77°
2026-05-05 16:47 0.44938 6.74501 3075 ft 107 kts 99°
2026-05-05 16:48 0.44700 6.75176 3215 ft 102 kts 122°
2026-05-05 16:48 0.44432 6.75810 3372 ft 101 kts 93°
2026-05-05 16:48 0.44507 6.76504 3523 ft 100 kts 82°
2026-05-05 16:48 0.44627 6.77187 3667 ft 99 kts 82°
2026-05-05 16:49 0.44833 6.77841 3802 ft 100 kts 55°
2026-05-05 16:49 0.45359 6.78302 3956 ft 100 kts 37°
2026-05-05 16:49 0.45947 6.78684 4113 ft 100 kts 33°
2026-05-05 16:49 0.46547 6.79039 4273 ft 99 kts 31°
2026-05-05 16:50 0.47146 6.79374 4423 ft 99 kts 31°
2026-05-05 16:50 0.47756 6.79704 4580 ft 100 kts 30°
2026-05-05 16:50 0.48373 6.80032 4730 ft 99 kts 30°
2026-05-05 16:50 0.48977 6.80349 4865 ft 96 kts 30°
2026-05-05 16:51 0.49576 6.80663 4968 ft 99 kts 30°
2026-05-05 16:51 0.50211 6.80997 4986 ft 108 kts 30°
2026-05-05 16:51 0.50904 6.81361 4992 ft 114 kts 30°
2026-05-05 16:51 0.51619 6.81736 4991 ft 118 kts 30°
2026-05-05 16:52 0.52356 6.82121 4974 ft 118 kts 30°
2026-05-05 16:52 0.53094 6.82505 4981 ft 118 kts 30°
2026-05-05 16:52 0.53833 6.82891 5002 ft 119 kts 30°
2026-05-05 16:52 0.54580 6.83279 4989 ft 121 kts 30°
2026-05-05 16:53 0.55328 6.83667 4983 ft 121 kts 29°
2026-05-05 16:53 0.56085 6.84059 4988 ft 122 kts 31°
2026-05-05 16:53 0.56645 6.84350 4982 ft 122 kts 30°
2026-05-05 16:53 0.57401 6.84742 4982 ft 121 kts 30°
2026-05-05 16:54 0.58156 6.85133 4984 ft 121 kts 30°
2026-05-05 16:54 0.58910 6.85524 4986 ft 121 kts 30°
2026-05-05 16:54 0.59669 6.85917 4984 ft 122 kts 30°
2026-05-05 16:54 0.60425 6.86308 4985 ft 122 kts 30°
2026-05-05 16:55 0.61180 6.86700 4987 ft 122 kts 30°
2026-05-05 16:55 0.61945 6.87096 4984 ft 123 kts 30°
2026-05-05 16:55 0.62705 6.87490 4985 ft 123 kts 30°
2026-05-05 16:55 0.63470 6.87885 4985 ft 123 kts 30°
2026-05-05 16:56 0.64235 6.88282 4985 ft 123 kts 30°
2026-05-05 16:56 0.64997 6.88676 4986 ft 123 kts 30°
2026-05-05 16:56 0.65759 6.89071 4983 ft 123 kts 30°
2026-05-05 16:56 0.66527 6.89468 4986 ft 123 kts 30°
2026-05-05 16:57 0.67284 6.89861 4986 ft 123 kts 30°
2026-05-05 16:57 0.68053 6.90259 4986 ft 123 kts 30°
2026-05-05 16:57 0.68818 6.90655 4984 ft 123 kts 30°
2026-05-05 16:57 0.69587 6.91053 4985 ft 123 kts 30°
2026-05-05 16:58 0.70348 6.91448 4986 ft 123 kts 29°
2026-05-05 16:58 0.71116 6.91845 4984 ft 123 kts 30°
2026-05-05 16:58 0.71876 6.92239 4981 ft 122 kts 30°
2026-05-05 16:58 0.72630 6.92630 4984 ft 121 kts 30°
2026-05-05 16:59 0.73392 6.93024 4983 ft 122 kts 30°
2026-05-05 16:59 0.74152 6.93417 4985 ft 123 kts 30°
2026-05-05 16:59 0.74911 6.93811 4986 ft 123 kts 29°
2026-05-05 16:59 0.75684 6.94211 4986 ft 123 kts 30°
2026-05-05 17:00 0.76443 6.94604 4987 ft 123 kts 29°
2026-05-05 17:00 0.77214 6.95003 4986 ft 123 kts 30°
2026-05-05 17:00 0.77975 6.95397 4986 ft 123 kts 30°
2026-05-05 17:00 0.78743 6.95794 4987 ft 123 kts 30°
2026-05-05 17:01 0.79505 6.96189 4987 ft 123 kts 30°
2026-05-05 17:01 0.80278 6.96587 4987 ft 123 kts 30°
2026-05-05 17:01 0.81045 6.96982 4986 ft 123 kts 29°
2026-05-05 17:01 0.81812 6.97377 4985 ft 123 kts 30°
2026-05-05 17:02 0.82584 6.97776 4985 ft 123 kts 30°
2026-05-05 17:02 0.83350 6.98171 4985 ft 123 kts 29°
2026-05-05 17:02 0.84118 6.98568 4984 ft 123 kts 29°
2026-05-05 17:02 0.84879 6.98962 4983 ft 123 kts 30°
2026-05-05 17:03 0.85645 6.99358 4982 ft 123 kts 30°
2026-05-05 17:03 0.86416 6.99757 4983 ft 123 kts 30°
2026-05-05 17:03 0.87187 7.00157 4983 ft 123 kts 30°
2026-05-05 17:03 0.87951 7.00551 4980 ft 123 kts 30°
2026-05-05 17:04 0.88713 7.00947 4981 ft 123 kts 30°
2026-05-05 17:04 0.89482 7.01344 4983 ft 123 kts 29°
2026-05-05 17:04 0.90247 7.01741 4983 ft 123 kts 30°
2026-05-05 17:04 0.91008 7.02134 4982 ft 123 kts 29°
2026-05-05 17:05 0.91768 7.02529 4982 ft 123 kts 30°
2026-05-05 17:05 0.92534 7.02925 4982 ft 123 kts 30°
2026-05-05 17:05 0.93311 7.03328 4981 ft 123 kts 30°
2026-05-05 17:05 0.94070 7.03721 4980 ft 123 kts 30°
2026-05-05 17:06 0.94841 7.04120 4980 ft 123 kts 30°
2026-05-05 17:06 0.95609 7.04518 4980 ft 123 kts 30°
2026-05-05 17:06 0.96374 7.04914 4980 ft 123 kts 30°
2026-05-05 17:06 0.97131 7.05306 4980 ft 123 kts 29°
2026-05-05 17:07 0.97901 7.05705 4981 ft 123 kts 29°
2026-05-05 17:07 0.98672 7.06105 4982 ft 123 kts 29°
2026-05-05 17:07 0.99437 7.06501 4982 ft 123 kts 30°
2026-05-05 17:07 1.00205 7.06899 4981 ft 123 kts 29°
2026-05-05 17:08 1.00965 7.07292 4980 ft 123 kts 30°
2026-05-05 17:08 1.01737 7.07691 4980 ft 123 kts 30°
2026-05-05 17:08 1.02502 7.08088 4980 ft 123 kts 30°
2026-05-05 17:08 1.03268 7.08485 4980 ft 123 kts 29°
2026-05-05 17:09 1.04032 7.08881 4980 ft 123 kts 30°
2026-05-05 17:09 1.04803 7.09279 4980 ft 123 kts 30°
2026-05-05 17:09 1.05561 7.09672 4980 ft 123 kts 30°
2026-05-05 17:09 1.06323 7.10067 4980 ft 123 kts 30°
2026-05-05 17:10 1.07090 7.10464 4981 ft 123 kts 30°
2026-05-05 17:10 1.07856 7.10861 4981 ft 123 kts 29°
2026-05-05 17:10 1.08621 7.11258 4980 ft 123 kts 30°
2026-05-05 17:10 1.09392 7.11657 4980 ft 123 kts 30°
2026-05-05 17:11 1.10169 7.12060 4979 ft 123 kts 30°
2026-05-05 17:11 1.10929 7.12453 4974 ft 124 kts 30°
2026-05-05 17:11 1.11698 7.12853 4949 ft 125 kts 29°
2026-05-05 17:11 1.12484 7.13259 4926 ft 126 kts 29°
2026-05-05 17:12 1.13263 7.13664 4900 ft 126 kts 30°
2026-05-05 17:12 1.14049 7.14072 4877 ft 126 kts 30°
2026-05-05 17:12 1.14831 7.14478 4852 ft 126 kts 30°
2026-05-05 17:12 1.15618 7.14886 4813 ft 127 kts 29°
2026-05-05 17:13 1.16415 7.15299 4766 ft 128 kts 30°
2026-05-05 17:13 1.17211 7.15712 4717 ft 129 kts 29°
2026-05-05 17:13 1.18013 7.16128 4665 ft 130 kts 30°
2026-05-05 17:13 1.18822 7.16549 4592 ft 131 kts 29°
2026-05-05 17:14 1.19641 7.16974 4519 ft 132 kts 30°
2026-05-05 17:14 1.20462 7.17399 4446 ft 132 kts 30°
2026-05-05 17:14 1.21285 7.17826 4373 ft 133 kts 29°
2026-05-05 17:14 1.22111 7.18254 4300 ft 133 kts 30°
2026-05-05 17:15 1.22935 7.18683 4222 ft 133 kts 29°
2026-05-05 17:15 1.23766 7.19116 4124 ft 135 kts 29°
2026-05-05 17:15 1.24596 7.19549 4027 ft 135 kts 30°
2026-05-05 17:15 1.25443 7.19989 3929 ft 136 kts 29°
2026-05-05 17:16 1.26283 7.20426 3832 ft 136 kts 29°
2026-05-05 17:16 1.27137 7.20868 3733 ft 136 kts 29°
2026-05-05 17:16 1.27982 7.21306 3637 ft 137 kts 29°
2026-05-05 17:16 1.28836 7.21749 3539 ft 137 kts 29°
2026-05-05 17:17 1.29686 7.22190 3441 ft 137 kts 29°
2026-05-05 17:17 1.30531 7.22628 3343 ft 135 kts 28°
2026-05-05 17:17 1.31366 7.23061 3244 ft 134 kts 29°
2026-05-05 17:17 1.32185 7.23486 3137 ft 133 kts 29°
2026-05-05 17:18 1.33009 7.23913 3015 ft 132 kts 29°
2026-05-05 17:18 1.33824 7.24336 2890 ft 130 kts 29°
2026-05-05 17:18 1.34618 7.24749 2768 ft 128 kts 29°
2026-05-05 17:18 1.35373 7.25143 2631 ft 110 kts 30°
2026-05-05 17:19 1.36063 7.25499 2516 ft 120 kts 28°
2026-05-05 17:19 1.36849 7.25899 2411 ft 134 kts 28°
2026-05-05 17:19 1.37708 7.26342 2297 ft 141 kts 28°
2026-05-05 17:19 1.38602 7.26806 2177 ft 144 kts 28°
2026-05-05 17:20 1.39516 7.27260 2057 ft 146 kts 24°
2026-05-05 17:20 1.40489 7.27562 1951 ft 145 kts 17°
2026-05-05 17:20 1.41458 7.27828 1879 ft 144 kts 16°
2026-05-05 17:20 1.67701 7.28590 1791 ft 144 kts 18°
2026-05-05 17:21 1.68659 7.28868 1718 ft 144 kts 18°
2026-05-05 17:21 1.69628 7.29154 1647 ft 143 kts 20°
2026-05-05 17:21 1.70517 7.29565 1571 ft 141 kts 47°
2026-05-05 17:22 1.71543 7.31212 1438 ft 140 kts 65°
2026-05-05 17:22 1.72020 7.32071 1361 ft 140 kts 67°
2026-05-05 17:22 1.72486 7.32922 1281 ft 139 kts 67°
2026-05-05 17:22 1.72952 7.33772 1200 ft 140 kts 66°
2026-05-05 17:23 1.73425 7.34640 1119 ft 141 kts 68°
2026-05-05 17:23 1.73865 7.35506 1033 ft 139 kts 72°
2026-05-05 17:23 1.73922 7.36442 984 ft 134 kts 98°
2026-05-05 17:23 1.73841 7.37355 972 ft 131 kts 103°
2026-05-05 17:24 1.73712 7.38257 975 ft 128 kts 110°
2026-05-05 17:24 1.73208 7.38893 1021 ft 117 kts 162°
2026-05-05 17:24 1.72464 7.39234 1127 ft 113 kts 159°
2026-05-05 17:24 1.71787 7.39569 1323 ft 106 kts 158°
2026-05-05 17:25 1.71144 7.39930 1324 ft 103 kts 154°
2026-05-05 17:25 1.70762 7.40182 1269 ft 101 kts 153°
2026-05-05 17:25 1.69952 7.40673 1101 ft 96 kts 161°
2026-05-05 17:25 1.69340 7.40914 919 ft 94 kts 167°
2026-05-05 17:26 1.68725 7.41058 807 ft 83 kts 176°
2026-05-05 17:26 1.68205 7.41099 734 ft 69 kts 184°
2026-05-05 17:26 1.67742 7.41100 663 ft 64 kts 178°
2026-05-05 17:26 1.67302 7.41098 616 ft 59 kts 182°
2026-05-05 17:27 1.66906 7.41102 571 ft 49 kts 184°
2026-05-05 17:27 1.66644 7.41095 575 ft 28 kts 171°
2026-05-05 17:27 1.66492 7.41112 579 ft 16 kts 144°
2026-05-05 17:27 1.66486 7.41191 579 ft 0 kts 77°
2026-05-05 17:28 1.66486 7.41190 579 ft 0 kts 77°